FW3318 Weather Reports


Display with metric or nautical units.
time (UTC)temp
F
wind
direction
speed
MPH
gust
MPH
rain 1hr
in
rain 24hr
in
rain mn
in
humidity
%
barometer
mb
20260510071011 47 15 3.0 6.0 0.00 0.04 0.00 67 993.9
20260510070512 48 10 2.0 6.0 0.00 0.04 0.00 67 993.9
20260510070011 48 9 3.0 12.0 0.00 0.04 0.00 67 993.8
20260510065510 48 26 2.0 12.0 0.00 0.04 0.00 66 993.8
20260510065010 48 10 2.0 5.0 0.00 0.04 0.00 66 993.8
20260510064512 49 30 3.0 5.0 0.00 0.04 0.00 66 993.7
20260510064008 49 5 2.0 5.0 0.00 0.04 0.00 66 993.7
20260510063507 49 21 1.0 5.0 0.00 0.04 0.00 66 993.7
20260510063006 49 20 2.0 5.0 0.00 0.04 0.00 66 993.7
20260510062505 49 48 2.0 5.0 0.00 0.04 0.00 65 993.7
20260510062004 50 40 2.0 5.0 0.00 0.04 0.00 65 993.6
20260510061506 50 21 2.0 6.0 0.00 0.04 0.00 65 993.5
20260510061004 50 25 2.0 6.0 0.00 0.04 0.00 65 993.6
20260510060504 50 9 1.0 4.0 0.00 0.04 0.00 65 993.6
20260510060007 50 5 2.0 5.0 0.00 0.04 0.00 64 993.5
20260510055502 50 22 2.0 5.0 0.00 0.04 0.00 64 993.5
20260510055103 51 5 1.0 5.0 0.00 0.04 0.00 64 993.4
20260510054601 51 5 1.0 3.0 0.00 0.04 0.00 63 993.5
20260510054058 51 341 0.0 4.0 0.00 0.04 0.00 63 993.4
20260510053556 51 30 1.0 4.0 0.00 0.04 0.00 62 993.4
20260510053058 52 24 1.0 4.0 0.00 0.04 0.00 62 993.4
20260510052554 52 329 1.0 4.0 0.00 0.04 0.00 62 993.2
20260510052054 53 5 2.0 4.0 0.00 0.04 0.00 61 993.3
20260510051605 53 325 1.0 4.0 0.00 0.04 0.00 60 993.3
20260510051053 53 323 2.0 5.0 0.00 0.04 0.00 60 993.2
20260510050553 53 309 0.0 6.0 0.00 0.04 0.00 60 993.2
20260510050059 54 24 1.0 7.0 0.00 0.04 0.00 59 993.2
20260510045550 54 5 2.0 7.0 0.00 0.04 0.00 59 993.1
20260510045050 54 43 2.0 4.0 0.00 0.04 0.00 59 993.2
20260510044549 54 5 1.0 3.0 0.00 0.04 0.00 59 993.2
20260510044048 55 48 0.0 3.0 0.00 0.04 0.00 58 993.1
20260510043547 55 50 0.0 3.0 0.00 0.04 0.00 58 993.2
20260510043048 55 5 0.0 4.0 0.00 0.04 0.00 57 993.2
20260510042548 55 34 1.0 4.0 0.00 0.04 0.00 56 993.2
20260510042047 56 9 1.0 4.0 0.00 0.04 0.00 57 993.2
20260510041547 56 42 1.0 5.0 0.00 0.04 0.00 56 993.1
20260510041047 56 32 3.0 5.0 0.00 0.04 0.00 55 993.2
20260510040549 56 19 2.0 5.0 0.00 0.04 0.00 55 993.2
20260510040048 57 329 2.0 9.0 0.00 0.04 0.00 54 993.2
20260510035548 57 14 2.0 9.0 0.00 0.04 0.00 53 993.2
20260510035047 57 69 2.0 7.0 0.00 0.04 0.00 53 993.1
20260510034547 57 27 1.0 8.0 0.00 0.04 0.00 53 993.1
20260510034047 58 33 2.0 8.0 0.00 0.04 0.00 52 993.1
20260510033549 58 37 1.0 10.0 0.00 0.04 0.00 52 993.1
20260510033054 58 52 4.0 10.0 0.00 0.04 0.00 51 993.1
20260510032545 59 32 2.0 8.0 0.00 0.04 0.00 51 993.1
20260510032045 59 322 2.0 4.0 0.00 0.04 0.00 50 993.2
20260510031548 59 313 1.0 5.0 0.00 0.04 0.00 51 993.1
20260510031049 59 34 2.0 6.0 0.00 0.04 0.00 51 993.1
20260510030544 59 360 2.0 6.0 0.00 0.04 0.00 49 993.1
20260510030044 60 20 1.0 9.0 0.00 0.04 0.00 49 993.1
20260510025543 60 83 1.0 9.0 0.00 0.04 0.00 48 993.1
20260510025043 60 46 2.0 6.0 0.00 0.04 0.00 46 993.1
20260510024543 60 35 0.0 8.0 0.00 0.04 0.00 47 993.1
20260510024042 60 313 0.0 8.0 0.00 0.04 0.00 50 993.0
20260510023542 60 98 3.0 8.0 0.00 0.04 0.00 48 993.1
20260510023042 60 5 2.0 5.0 0.00 0.04 0.00 49 993.0
20260510022542 60 305 1.0 5.0 0.00 0.04 0.00 48 992.9
20260510022044 60 355 2.0 9.0 0.00 0.04 0.00 49 992.9
20260510021634 60 40 2.0 9.0 0.00 0.04 0.00 48 993.0
20260510021040 60 22 1.0 6.0 0.00 0.04 0.00 48 993.0
20260510020540 60 63 1.0 4.0 0.00 0.04 0.00 46 993.1
20260510020039 60 164 1.0 4.0 0.00 0.04 0.00 48 993.1
20260510015539 60 18 1.0 4.0 0.00 0.04 0.00 47 993.2
20260510015037 60 82 1.0 6.0 0.00 0.04 0.00 47 993.2
20260510014551 60 77 2.0 8.0 0.00 0.04 0.00 46 993.3
20260510014037 60 76 2.0 8.0 0.00 0.04 0.00 48 993.4
20260510013537 60 98 3.0 7.0 0.00 0.04 0.00 48 993.4
20260510013035 60 65 2.0 5.0 0.00 0.04 0.00 48 993.3
20260510012534 60 103 1.0 8.0 0.00 0.04 0.00 47 993.5
20260510012037 60 84 0.0 8.0 0.00 0.04 0.00 48 993.4
20260510011534 60 70 1.0 6.0 0.00 0.04 0.00 48 993.5
20260510011032 60 175 0.0 4.0 0.00 0.04 0.00 49 993.5
20260510010531 59 131 0.0 4.0 0.00 0.04 0.00 49 993.6
20260510010041 59 105 2.0 4.0 0.00 0.04 0.00 50 993.7
20260510005530 59 155 0.0 4.0 0.00 0.04 0.00 53 993.7
20260510005029 58 86 2.0 4.0 0.00 0.04 0.00 52 993.8
20260510004529 58 80 1.0 3.0 0.00 0.04 0.00 52 993.8
20260510004031 58 103 0.0 4.0 0.00 0.04 0.00 51 993.8
20260510003531 58 80 1.0 4.0 0.00 0.04 0.00 52 993.9
20260510003028 58 20 0.0 3.0 0.00 0.04 0.00 52 993.9
20260510002525 59 187 1.0 3.0 0.00 0.04 0.00 52 994.0
20260510002026 59 202 1.0 7.0 0.00 0.04 0.00 53 994.0
20260510001526 59 135 1.0 7.0 0.00 0.04 0.00 51 994.1
20260510001026 59 152 0.0 8.0 0.00 0.04 0.00 52 994.2
20260510000526 59 111 0.0 8.0 0.00 0.04 0.00 53 994.2
20260510000025 59 162 1.0 4.0 0.00 0.04 0.00 52 994.1
20260509235524 59 141 0.0 4.0 0.00 0.04 0.00 54 994.2
20260509235024 59 88 1.0 4.0 0.00 0.04 0.00 54 994.3
20260509234524 59 143 1.0 6.0 0.00 0.04 0.00 55 994.3
20260509234024 58 123 2.0 6.0 0.00 0.04 0.00 55 994.2
20260509233521 58 209 1.0 5.0 0.00 0.04 0.00 55 994.2
20260509233021 58 131 1.0 5.0 0.00 0.04 0.00 54 994.2
20260509232524 58 152 1.0 7.0 0.00 0.04 0.00 54 994.1
20260509232020 58 225 3.0 7.0 0.00 0.04 0.00 54 994.1
20260509231518 57 126 1.0 6.0 0.00 0.04 0.00 53 994.1
20260509231017 57 102 2.0 7.0 0.00 0.04 0.00 54 994.2
20260509230518 57 111 1.0 9.0 0.00 0.04 0.00 56 994.0
20260509230024 57 55 5.0 9.0 0.00 0.04 0.00 55 994.1
20260509225516 56 180 1.0 5.0 0.00 0.04 0.00 56 994.1
20260509225015 57 176 0.0 5.0 0.00 0.04 0.00 55 994.2
20260509224520 57 60 1.0 4.0 0.00 0.04 0.00 56 994.1
20260509224014 56 22 2.0 7.0 0.00 0.04 0.00 57 994.2
20260509223514 56 36 3.0 7.0 0.00 0.04 0.00 56 994.2
20260509223014 56 355 1.0 8.0 0.00 0.04 0.00 58 994.2
20260509222513 56 21 3.0 8.0 0.00 0.04 0.00 57 994.2
20260509222013 56 49 2.0 5.0 0.00 0.04 0.00 59 994.2
20260509221512 56 67 2.0 6.0 0.00 0.04 0.00 58 994.1
20260509221012 56 314 3.0 6.0 0.00 0.04 0.00 61 994.2
20260509220510 56 127 1.0 6.0 0.00 0.04 0.00 59 994.2
20260509220009 55 131 1.0 10.0 0.00 0.04 0.00 59 994.1
20260509215508 55 133 3.0 10.0 0.00 0.04 0.00 61 994.2
20260509215006 55 44 2.0 11.0 0.00 0.04 0.00 59 994.3
20260509214505 54 65 6.0 10.0 0.00 0.04 0.00 59 994.2
20260509211057 54 107 3.0 6.0 0.00 0.04 0.04 64 994.8
20260509210555 54 115 0.0 6.0 0.00 0.04 0.04 66 994.8
20260509210054 54 92 1.0 6.0 0.00 0.04 0.04 64 994.9
20260509205556 54 281 2.0 7.0 0.00 0.04 0.04 65 994.9
20260509205052 54 107 3.0 6.0 0.00 0.04 0.04 63 994.9
20260509204551 53 50 2.0 6.0 0.00 0.04 0.04 68 994.8
20260509204050 52 95 1.0 3.0 0.00 0.04 0.04 69 994.9
20260509203548 51 269 0.0 2.0 0.00 0.04 0.04 71 995.0
20260509203048 51 269 1.0 4.0 0.00 0.04 0.04 70 995.1
20260509202548 51 269 2.0 4.0 0.00 0.04 0.04 71 995.1
20260509202047 52 310 2.0 4.0 0.00 0.04 0.04 72 995.2
20260509201546 51 272 0.0 4.0 0.00 0.04 0.04 73 995.2
20260509201048 51 283 1.0 4.0 0.00 0.04 0.04 70 995.3
20260509200544 51 66 1.0 4.0 0.00 0.04 0.04 71 995.3
20260509200051 51 96 0.0 2.0 0.00 0.04 0.04 72 995.3
20260509195544 51 98 1.0 4.0 0.00 0.04 0.04 71 995.5
20260509195045 51 101 1.0 4.0 0.00 0.04 0.04 70 995.3
20260509194553 51 34 1.0 3.0 0.00 0.04 0.04 70 995.4
20260509194041 51 86 1.0 3.0 0.00 0.04 0.04 72 995.4
20260509193541 51 82 1.0 3.0 0.00 0.04 0.04 73 995.5
20260509193043 50 179 1.0 3.0 0.00 0.04 0.04 73 995.5
20260509192538 50 111 1.0 4.0 0.00 0.04 0.04 74 995.5
20260509192037 50 92 0.0 4.0 0.00 0.04 0.04 76 995.6
20260509191536 49 58 1.0 4.0 0.00 0.04 0.04 75 995.6
20260509191037 49 45 0.0 4.0 0.00 0.04 0.04 77 995.5
20260509190535 49 5 1.0 5.0 0.00 0.04 0.04 77 995.6
20260509190033 49 86 1.0 5.0 0.00 0.04 0.04 76 995.6
20260509185532 48 33 1.0 4.0 0.00 0.04 0.04 79 995.6
20260509185032 48 101 1.0 7.0 0.00 0.04 0.04 80 995.7
20260509184534 48 94 2.0 7.0 0.00 0.04 0.04 79 995.7
20260509184030 47 67 1.0 6.0 0.00 0.04 0.04 81 995.8
20260509183528 47 111 1.0 6.0 0.00 0.04 0.04 79 995.8
20260509183028 47 10 1.0 7.0 0.00 0.04 0.04 81 995.8
20260509182527 47 24 3.0 7.0 0.00 0.04 0.04 81 995.8
20260509182025 47 65 3.0 6.0 0.00 0.04 0.04 82 995.8
20260509181524 46 73 1.0 3.0 0.00 0.04 0.04 84 995.8
20260509181024 46 200 0.0 5.0 0.00 0.04 0.04 84 995.9
20260509180522 45 98 2.0 5.0 0.00 0.04 0.04 85 995.9
20260509180020 45 71 1.0 6.0 0.00 0.04 0.04 85 995.8
20260509175518 45 71 0.0 8.0 0.00 0.04 0.04 84 995.9
20260509175018 45 92 3.0 8.0 0.00 0.04 0.04 85 995.9
20260509174517 45 117 3.0 7.0 0.00 0.04 0.04 85 995.9
20260509174016 45 97 1.0 7.0 0.00 0.04 0.04 86 996.0
20260509173518 45 30 1.0 5.0 0.00 0.04 0.04 85 996.1
20260509173022 44 74 2.0 5.0 0.00 0.04 0.04 85 996.1
20260509172516 44 84 2.0 6.0 0.00 0.04 0.04 87 996.1
20260509172012 44 84 2.0 6.0 0.00 0.04 0.04 89 996.2
20260509171510 43 80 0.0 4.0 0.00 0.04 0.04 92 996.2
20260509171008 43 40 3.0 4.0 0.00 0.04 0.04 92 996.3
20260509170507 42 76 0.0 4.0 0.00 0.04 0.04 93 996.3
20260509170006 42 51 0.0 4.0 0.00 0.04 0.04 94 996.3
20260509165504 42 56 0.0 4.0 0.00 0.04 0.04 94 996.3
20260509165003 41 65 1.0 4.0 0.00 0.04 0.04 94 996.5
20260509164502 41 78 0.0 4.0 0.00 0.04 0.04 94 996.5
20260509164001 41 92 1.0 4.0 0.00 0.04 0.04 94 996.5
20260509163559 41 78 1.0 3.0 0.00 0.04 0.04 95 996.5
20260509163104 40 89 0.0 3.0 0.00 0.04 0.04 95 996.5
20260509162558 40 82 0.0 0.0 0.00 0.04 0.04 95 996.6
20260509162057 40 328 0.0 0.0 0.00 0.04 0.04 95 996.5
20260509161603 40 328 0.0 0.0 0.00 0.04 0.04 95 996.6
20260509161053 39 328 0.0 0.0 0.00 0.04 0.04 95 996.5
20260509160552 39 323 0.0 0.0 0.00 0.04 0.04 95 996.7
20260509160051 39 323 0.0 0.0 0.00 0.04 0.04 95 996.8
20260509155548 39 323 0.0 0.0 0.00 0.04 0.04 95 996.8
20260509155047 38 319 0.0 0.0 0.00 0.04 0.04 95 996.8
20260509154550 38 319 0.0 0.0 0.00 0.04 0.04 95 996.8
20260509154046 38 319 0.0 0.0 0.00 0.04 0.04 95 997.0
20260509153545 38 319 0.0 0.0 0.00 0.04 0.04 95 996.9
20260509153055 38 319 0.0 0.0 0.00 0.04 0.04 95 997.0
20260509152543 38 319 0.0 0.0 0.00 0.04 0.04 95 997.1
20260509152042 38 319 0.0 0.0 0.00 0.04 0.04 95 997.0
20260509151540 37 319 0.0 0.0 0.00 0.04 0.04 95 997.2
20260509151039 37 319 0.0 0.0 0.00 0.04 0.04 95 997.1
20260509150538 37 319 0.0 0.0 0.00 0.04 0.04 95 997.1
20260509150037 37 319 0.0 0.0 0.00 0.04 0.04 95 997.2
20260509145537 37 319 0.0 0.0 0.00 0.04 0.04 95 997.2
20260509145037 37 319 0.0 0.0 0.00 0.04 0.04 95 997.3
20260509144541 37 319 0.0 0.0 0.00 0.04 0.04 95 997.3
20260509144035 37 319 0.0 0.0 0.00 0.04 0.04 95 997.4
20260509143537 37 319 0.0 0.0 0.00 0.04 0.04 95 997.4
20260509143034 37 319 0.0 1.0 0.00 0.04 0.04 95 997.5
20260509142533 37 319 0.0 2.0 0.00 0.04 0.04 95 997.5
20260509142033 37 319 0.0 0.0 0.01 0.04 0.04 95 997.5
20260509141538 37 321 0.0 0.0 0.01 0.04 0.04 95 997.6
20260509141031 37 321 0.0 0.0 0.01 0.04 0.04 95 997.7
20260509140529 37 321 0.0 0.0 0.01 0.04 0.04 95 997.9
20260509140031 37 321 0.0 0.0 0.01 0.04 0.04 95 997.9
20260509135529 37 321 0.0 0.0 0.01 0.04 0.04 95 997.9
20260509135028 37 321 0.0 0.0 0.01 0.04 0.04 95 998.0
20260509134528 37 321 0.0 1.0 0.01 0.04 0.04 95 998.0
20260509134026 37 321 0.0 2.0 0.01 0.04 0.04 95 998.0
20260509133526 37 321 0.0 2.0 0.01 0.04 0.04 95 998.1
20260509133026 37 321 0.0 2.0 0.01 0.04 0.04 95 998.2
20260509132527 37 321 0.0 0.0 0.01 0.04 0.04 95 998.2
20260509132023 37 321 0.0 0.0 0.00 0.03 0.03 95 998.2
20260509131523 37 321 0.0 2.0 0.01 0.03 0.03 95 998.3
20260509131024 37 321 0.0 2.0 0.01 0.03 0.03 95 998.3
20260509130521 37 321 0.0 0.0 0.01 0.03 0.03 95 998.5
20260509130020 37 321 0.0 0.0 0.01 0.03 0.03 95 998.4
20260509125519 37 321 0.0 0.0 0.01 0.03 0.03 95 998.3
20260509125020 37 321 0.0 0.0 0.01 0.03 0.03 94 998.5
20260509124518 37 321 0.0 0.0 0.01 0.03 0.03 94 998.6
20260509124016 37 321 0.0 0.0 0.01 0.03 0.03 94 998.6
20260509123517 37 321 0.0 0.0 0.01 0.03 0.03 94 998.7
20260509123017 37 321 0.0 0.0 0.01 0.03 0.03 94 998.7
20260509122517 37 321 0.0 0.0 0.01 0.03 0.03 94 998.6
20260509122017 37 321 0.0 0.0 0.02 0.03 0.03 94 998.6
20260509121516 37 321 0.0 0.0 0.01 0.02 0.02 94 998.6
20260509121015 37 321 0.0 2.0 0.01 0.02 0.02 94 998.7
20260509120515 37 321 0.0 2.0 0.02 0.02 0.02 94 998.7
20260509120014 37 321 0.0 0.0 0.02 0.02 0.02 94 998.8
20260509115513 37 321 0.0 0.0 0.02 0.02 0.02 94 998.8
20260509115013 37 321 0.0 0.0 0.02 0.02 0.02 94 998.8
20260509114513 37 321 0.0 0.0 0.02 0.02 0.02 94 998.8
20260509114012 37 321 0.0 0.0 0.02 0.02 0.02 93 999.0
20260509113512 37 321 0.0 0.0 0.02 0.02 0.02 93 999.0
20260509113011 37 321 0.0 0.0 0.02 0.02 0.02 93 999.1
20260509112510 37 321 0.0 0.0 0.02 0.02 0.02 93 999.2
20260509112010 37 321 0.0 0.0 0.01 0.01 0.01 93 999.1
20260509111509 37 321 0.0 0.0 0.01 0.01 0.01 93 999.2
20260509111008 37 321 0.0 0.0 0.01 0.01 0.01 92 999.3
20260509110510 37 321 0.0 0.0 0.00 0.00 0.00 92 999.4
20260509110007 37 321 0.0 0.0 0.00 0.00 0.00 91 999.4
20260509105507 38 321 0.0 0.0 0.00 0.00 0.00 91 999.4
20260509105006 38 321 0.0 0.0 0.00 0.00 0.00 91 999.4
20260509104506 38 321 0.0 0.0 0.00 0.00 0.00 91 999.4
20260509104005 38 321 0.0 0.0 0.00 0.00 0.00 90 999.4
20260509103504 38 321 0.0 0.0 0.00 0.00 0.00 90 999.5
20260509103005 38 321 0.0 0.0 0.00 0.00 0.00 89 999.5
20260509102504 38 321 0.0 0.0 0.00 0.00 0.00 88 999.5
20260509102004 38 321 0.0 0.0 0.00 0.00 0.00 88 999.6
20260509101505 38 321 0.0 0.0 0.00 0.00 0.00 88 999.5
20260509101002 38 321 0.0 0.0 0.00 0.00 0.00 88 999.5
20260509100502 38 321 0.0 0.0 0.00 0.00 0.00 88 999.5
20260509100001 38 321 0.0 0.0 0.00 0.00 0.00 88 999.5
20260509095602 38 321 0.0 0.0 0.00 0.00 0.00 88 999.6
20260509095100 38 321 0.0 0.0 0.00 0.00 0.00 87 999.6
20260509094604 38 321 0.0 0.0 0.00 0.00 0.00 87 999.6
20260509094059 38 321 0.0 0.0 0.00 0.00 0.00 87 999.7
20260509093558 38 321 0.0 0.0 0.00 0.00 0.00 87 999.8
20260509093100 38 321 0.0 0.0 0.00 0.00 0.00 87 999.7
20260509092557 39 321 0.0 0.0 0.00 0.00 0.00 87 999.8
20260509092101 39 321 0.0 0.0 0.00 0.00 0.00 86 999.7
20260509091558 39 321 0.0 0.0 0.00 0.00 0.00 86 999.8
20260509091055 39 321 0.0 0.0 0.00 0.00 0.00 86 999.8
20260509090555 39 321 0.0 0.0 0.00 0.00 0.00 86 999.9
20260509090100 39 321 0.0 0.0 0.00 0.00 0.00 87 1000.0
20260509085554 39 321 0.0 0.0 0.00 0.00 0.00 86 999.9
20260509085053 39 321 0.0 0.0 0.00 0.00 0.00 87 1000.0
20260509084601 39 321 0.0 0.0 0.00 0.00 0.00 86 1000.0
20260509084053 39 321 0.0 0.0 0.00 0.00 0.00 86 1000.1
20260509083551 39 321 0.0 0.0 0.00 0.00 0.00 86 1000.1
20260509083106 39 321 0.0 0.0 0.00 0.00 0.00 86 1000.2
20260509082551 39 321 0.0 1.0 0.00 0.00 0.00 86 1000.2
20260509082052 39 321 0.0 2.0 0.00 0.00 0.00 86 1000.3
20260509081551 39 321 0.0 2.0 0.00 0.00 0.00 85 1000.4
20260509081049 39 321 0.0 0.0 0.00 0.00 0.00 85 1000.3
20260509080552 39 321 0.0 0.0 0.00 0.00 0.00 85 1000.4
20260509080051 39 321 0.0 0.0 0.00 0.00 0.00 84 1000.4
20260509075546 39 321 0.0 0.0 0.00 0.00 0.00 84 1000.5
20260509075046 39 321 0.0 0.0 0.00 0.00 0.00 84 1000.6
20260509074606 40 321 0.0 2.0 0.00 0.00 0.00 84 1000.6
20260509074045 40 321 0.0 2.0 0.00 0.00 0.00 84 1000.5
20260509073547 40 319 0.0 0.0 0.00 0.00 0.00 83 1000.6
20260509073102 40 319 0.0 0.0 0.00 0.00 0.00 83 1000.6
20260509072545 40 319 0.0 0.0 0.00 0.00 0.00 83 1000.6
20260509072044 40 319 0.0 0.0 0.00 0.00 0.00 83 1000.7
20260509071552 40 319 0.0 0.0 0.00 0.00 0.00 82 1000.7